Temp
60 56 52 57 58 56 53 50 49 54 59 56 54 55 59 64 65 64 66 68 69 71 77 78 78 78 78 78 76 75 74 74 73 73 72 72 73 73 75 77 78 78 80 80
55 51 60 60 57 53 53 50 49 55 58 56 54 54 60 63 63 66 66 68 69 71 73 76 77 77 77 76 77 75 74 72 72 77 75 73 72 75 76 81 79 79 80 79
51 57 59 56 55 52 53 49 49 49 54 56 53 52 56 62 64 66 67 69 70 70 71 74 75 76 78 76 77 75 75 74 74 75 76 72 74 74 77 79 78 79 80 80
54 58 54 54 52 53 47 56 52 49 47 42 53 41 53 58 60 63 65 67 68 70 71 73 74 75 77 77 79 77 76 75 74 75 74 73 70 71 76 76 79 79 80 79
51 52 51 49 51 55 49 54 50 50 48 48 48 41 52 55 56 61 64 66 68 69 70 73 75 76 78 79 78 77 76 74 74 74 75 76 74 75 75 75 73 73 75 76
52 59 54 53 54 54 54 50 50 51 46 37 47 44 49 54 57 61 64 66 67 67 70 72 74 75 75 79 78 77 73 70 72 71 75 74 73 72 70 69 68 68 67 67
48 50 54 56 50 54 52 45 34 34 33 36 45 43 48 56 61 63 63 66 66 68 70 71 72 75 75 76 75 75 75 70 70 70 74 74 70 72 69 69 68 66 65 64
36 36 49 54 50 46 46 43 36 27 32 38 46 38 50 60 64 64 64 64 65 65 68 69 71 72 75 75 74 75 73 70 69 71 74 74 74 70 70 69 68 67 66 65
39 38 53 54 55 52 45 39 47 33 38 32 42 47 54 60 61 60 60 64 64 65 67 68 70 72 72 72 74 74 74 70 70 74 75 74 72 70 68 69 69 68 67 66
46 35 49 50 52 53 50 51 36 37 28 28 40 42 45 54 57 59 59 61 63 64 67 69 70 70 70 70 72 73 74 72 70 72 73 71 72 71 72 70 68 67 66 64
48 41 43 48 45 45 44 41 43 40 38 32 33 42 54 55 57 57 60 61 63 64 66 67 70 71 71 71 72 71 73 71 69 70 72 72 70 72 73 70 67 66 63 64
48 39 32 41 52 53 48 45 44 32 32 34 35 36 57 58 58 58 59 61 63 63 64 67 69 70 69 71 71 70 72 70 70 70 70 69 71 70 68 66 64 63 63 65
47 35 31 39 43 46 42 45 44 40 37 32 31 39 57 58 59 59 57 58 59 59 62 65 67 68 68 68 69 70 71 72 69 72 69 68 68 67 64 63 62 63 63 65
48 34 33 31 39 42 35 41 43 35 31 37 38 42 49 52 51 52 54 56 58 58 59 62 64 66 68 67 68 70 69 74 68 70 67 66 66 63 62 61 62 62 64 64
42 33 37 37 40 42 41 40 41 36 36 31 38 39 45 50 47 48 52 53 54 56 57 60 62 63 66 65 67 68 70 74 69 68 67 65 62 61 61 61 60 60 62 61
40 33 36 36 43 43 39 43 43 41 41 39 40 39 50 47 45 45 47 47 48 51 54 57 60 61 63 64 65 68 70 73 70 68 63 60 60 59 58 58 57 57 56 56
34 33 33 33 41 40 33 35 38 39 40 39 34 43 42 38 41 44 44 43 45 49 52 55 58 60 62 64 65 65 70 73 69 61 59 58 57 56 55 55 55 54 52 53
34 33 34 32 37 26 37 42 41 38 41 45 43 44 40 41 45 44 44 43 46 49 53 55 57 59 60 64 65 64 69 67 60 58 56 55 55 53 54 52 52 52 52 52
42 36 32 30 29 36 41 36 36 36 36 46 37 38 41 44 40 39 47 49 49 50 52 56 58 59 60 63 64 64 64 59 57 54 54 53 53 53 52 50 50 50 50 50
45 41 34 32 28 27 40 42 46 45 31 39 40 41 39 38 31 36 47 48 47 49 52 54 57 59 61 62 63 60 57 56 53 53 53 54 55 53 50 49 48 47 47 46
38 39 31 32 30 37 44 43 46 29 36 44 42 39 37 35 37 40 45 46 49 49 52 55 56 57 58 61 59 55 54 52 53 54 54 54 53 50 49 47 48 47 47 48
33 32 32 32 29 27 43 44 32 41 42 41 40 40 38 38 40 43 45 47 50 49 52 56 56 56 57 57 55 52 50 52 52 51 49 47 47 48 47 46 46 49 49 48
32 35 34 34 36 49 48 43 45 43 40 40 39 40 40 39 41 43 44 47 50 52 54 55 53 52 53 53 51 47 48 49 48 48 46 46 46 46 47 47 47 49 51 49
40 42 33 35 42 44 45 46 45 46 41 41 41 41 41 40 43 45 49 54 53 53 52 52 51 48 48 50 49 47 47 48 47 45 45 44 44 46 49 51 53 49 49 47
40 36 34 35 40 40 42 41 41 41 41 41 43 43 42 44 46 46 54 53 53 52 51 51 49 47 46 47 47 47 48 48 45 43 42 43 43 46 46 45 47 47 47 48
37 35 33 34 39 36 37 40 41 39 40 42 41 42 45 46 45 46 47 49 50 49 50 48 47 46 45 45 45 45 46 45 42 40 40 41 43 46 45 43 40 39 40 39
MSLP
1012.70 1012.47 1011.75 1011.50 1011.51 1011.61 1011.59 1011.38 1010.67 1010.45 1010.29 1009.69 1008.51 1007.29 1006.92 1006.54 1006.18 1005.83 1005.40 1005.39 1005.31 1004.99 1004.62 1004.50 1004.41 1004.31 1004.37 1004.42 1004.52 1004.78 1005.09 1005.64 1006.23 1006.70 1007.13 1007.35 1008.30 1008.91 1009.88 1010.71 1011.08 1011.50 1011.90 1012.39
1012.75 1011.69 1011.15 1011.38 1011.53 1011.47 1011.24 1010.89 1010.49 1010.06 1009.94 1009.41 1007.95 1006.24 1005.75 1005.34 1004.64 1004.31 1004.22 1004.20 1004.23 1004.22 1004.20 1003.93 1003.93 1003.85 1003.87 1003.92 1003.93 1004.48 1004.71 1005.32 1005.78 1006.19 1006.13 1006.67 1007.70 1008.34 1009.40 1010.29 1010.62 1011.12 1011.61 1011.88
1011.97 1011.13 1011.33 1011.36 1011.05 1010.95 1010.68 1010.62 1010.26 1010.06 1009.68 1009.03 1007.62 1004.98 1004.29 1004.00 1003.89 1003.32 1003.21 1003.48 1003.56 1003.59 1003.47 1003.40 1003.51 1003.43 1003.32 1003.58 1003.64 1003.96 1004.06 1004.69 1005.50 1005.37 1006.07 1005.77 1007.92 1008.10 1009.40 1010.19 1010.38 1010.79 1011.36 1011.67
1011.64 1011.14 1011.18 1011.05 1010.86 1010.91 1010.21 1010.52 1010.52 1010.24 1009.66 1008.50 1008.54 1005.18 1004.05 1003.60 1002.76 1002.64 1002.63 1002.90 1003.16 1003.24 1003.42 1003.27 1003.03 1003.08 1002.98 1002.90 1003.03 1003.27 1003.86 1004.32 1004.88 1005.41 1005.45 1006.14 1006.99 1007.51 1008.79 1009.83 1010.08 1010.76 1011.15 1011.56
1011.70 1011.53 1011.28 1011.06 1010.75 1010.85 1010.52 1010.78 1010.75 1010.40 1009.58 1008.61 1008.09 1007.33 1003.35 1003.54 1002.25 1001.91 1002.06 1002.37 1002.56 1002.61 1002.63 1002.41 1002.41 1002.29 1002.24 1002.64 1002.76 1003.07 1003.50 1003.92 1004.40 1004.85 1005.19 1005.88 1007.05 1007.57 1007.88 1009.71 1010.08 1010.88 1011.71 1011.91
1012.46 1011.96 1011.75 1011.08 1011.00 1011.11 1011.21 1011.23 1010.73 1010.00 1009.58 1008.17 1006.78 1006.62 1003.31 1002.81 1001.93 1001.59 1001.85 1002.25 1002.42 1002.42 1002.46 1002.36 1002.22 1002.14 1001.85 1001.95 1002.31 1002.71 1003.18 1003.47 1004.07 1004.51 1004.92 1005.65 1006.45 1007.38 1007.66 1009.44 1009.85 1011.45 1012.21 1012.83
1012.67 1011.96 1011.74 1011.51 1011.22 1011.27 1011.37 1011.59 1010.82 1009.76 1009.34 1007.59 1007.21 1006.11 1003.76 1002.91 1001.75 1001.93 1001.90 1002.08 1002.62 1002.40 1002.12 1002.03 1001.90 1001.63 1001.45 1001.80 1001.99 1002.11 1002.70 1003.21 1003.88 1004.25 1004.63 1005.32 1006.29 1007.07 1007.41 1008.63 1010.05 1011.31 1011.97 1013.23
1013.31 1012.24 1012.05 1012.01 1011.87 1011.80 1011.76 1012.17 1011.56 1010.38 1009.21 1007.76 1007.41 1005.14 1003.17 1002.61 1001.91 1002.07 1002.22 1002.39 1002.56 1002.49 1002.30 1002.10 1001.84 1001.77 1001.43 1001.19 1001.97 1001.96 1002.27 1002.86 1003.43 1003.74 1003.77 1004.25 1005.84 1006.26 1008.03 1008.80 1009.98 1010.70 1011.46 1012.22
1013.62 1012.93 1012.29 1011.98 1011.66 1012.04 1011.64 1011.89 1011.96 1011.60 1010.33 1008.94 1006.27 1004.73 1003.91 1002.35 1001.93 1002.07 1002.16 1002.24 1002.66 1002.78 1002.47 1002.15 1001.92 1001.60 1001.57 1001.24 1001.29 1001.73 1001.67 1002.47 1002.67 1003.00 1003.41 1003.93 1005.83 1006.87 1008.17 1009.25 1009.90 1010.42 1011.34 1012.69
1014.29 1013.07 1011.96 1011.83 1011.82 1011.44 1011.34 1011.78 1011.93 1011.69 1010.22 1007.99 1005.53 1004.29 1002.89 1002.17 1001.80 1001.98 1002.43 1002.69 1002.89 1003.00 1002.70 1002.37 1001.92 1001.52 1001.34 1001.26 1001.12 1001.50 1001.61 1001.96 1001.89 1001.52 1001.69 1003.28 1005.13 1006.67 1007.95 1009.06 1009.45 1010.27 1011.66 1013.01
1014.78 1014.43 1012.56 1012.28 1011.32 1010.80 1011.52 1011.65 1011.71 1011.77 1010.87 1008.75 1006.01 1003.63 1003.14 1002.57 1002.38 1002.40 1002.46 1002.98 1003.17 1003.34 1003.10 1002.80 1002.02 1001.47 1001.23 1001.28 1000.96 1001.35 1001.53 1001.78 1002.09 1002.08 1002.48 1003.20 1005.04 1006.33 1007.37 1008.53 1009.64 1010.49 1012.20 1013.13
1014.86 1014.72 1013.36 1011.81 1010.72 1010.90 1011.16 1011.09 1011.32 1011.49 1010.56 1009.42 1007.55 1003.80 1003.31 1002.85 1002.99 1003.17 1003.05 1003.00 1003.41 1003.80 1003.55 1002.94 1002.17 1001.40 1001.03 1001.07 1000.96 1001.11 1001.22 1001.61 1002.32 1001.79 1003.71 1003.70 1005.01 1006.26 1007.29 1008.61 1009.91 1010.96 1012.16 1013.26
1015.18 1015.01 1013.64 1011.36 1011.30 1011.07 1010.86 1010.83 1011.11 1011.29 1010.87 1008.73 1007.33 1003.83 1003.64 1003.50 1003.29 1003.32 1003.47 1003.54 1003.54 1003.41 1003.31 1002.99 1002.29 1001.42 1000.78 1000.58 1000.86 1000.86 1000.96 1001.46 1002.28 1001.84 1003.59 1004.13 1004.93 1006.18 1007.65 1009.08 1010.39 1011.16 1012.40 1013.36
1015.43 1014.74 1014.09 1012.77 1011.13 1011.23 1011.10 1010.73 1010.70 1010.89 1009.94 1007.97 1006.28 1004.37 1004.04 1004.18 1004.27 1004.13 1003.94 1003.88 1003.81 1003.46 1003.09 1002.71 1002.20 1001.48 1000.77 1000.58 1000.61 1000.60 1000.79 1001.13 1002.23 1003.02 1004.17 1004.50 1004.98 1006.15 1007.70 1009.17 1010.63 1011.80 1012.72 1013.62
1015.02 1014.32 1013.71 1012.73 1011.88 1010.95 1010.04 1009.70 1009.80 1009.71 1009.10 1008.22 1006.65 1005.80 1005.20 1005.01 1005.14 1005.22 1004.64 1004.24 1003.91 1003.20 1002.87 1002.48 1001.97 1001.57 1000.94 1000.60 1000.15 1000.53 1000.41 1000.79 1001.87 1002.53 1002.12 1005.49 1005.82 1006.61 1008.02 1009.65 1010.83 1012.57 1013.40 1014.20
1015.06 1014.34 1013.59 1012.37 1011.00 1010.18 1009.27 1008.99 1008.77 1008.57 1008.26 1007.70 1006.96 1005.49 1005.39 1005.82 1006.11 1005.73 1005.23 1004.67 1004.30 1003.65 1002.77 1002.46 1002.20 1001.66 1000.94 1000.63 1000.05 1000.31 1000.18 1000.43 1001.76 1003.07 1003.91 1005.76 1006.36 1006.89 1008.71 1010.34 1011.73 1013.03 1014.33 1015.13
1015.20 1014.69 1013.83 1011.57 1010.70 1009.79 1008.80 1008.93 1008.73 1008.34 1008.15 1007.92 1006.80 1005.19 1006.00 1006.07 1006.09 1005.81 1005.30 1004.89 1003.87 1003.16 1002.20 1001.52 1001.32 1001.08 1000.71 1000.32 1000.17 1000.21 1000.02 1000.04 1001.30 1003.02 1004.29 1005.23 1006.51 1007.52 1009.24 1011.08 1012.64 1013.99 1015.06 1015.95
1014.63 1014.56 1013.79 1011.70 1010.65 1009.42 1008.72 1008.98 1008.89 1008.64 1008.05 1007.32 1006.46 1005.92 1006.44 1006.29 1005.96 1005.62 1005.20 1003.95 1003.00 1002.01 1001.19 1000.51 1000.26 1000.10 1000.00 999.98 999.72 1000.15 1000.03 1000.74 1002.18 1003.52 1004.87 1005.48 1007.01 1008.55 1010.42 1012.04 1013.49 1014.83 1015.69 1016.74
1014.15 1014.10 1013.29 1011.93 1010.67 1008.98 1007.94 1009.08 1009.27 1008.70 1006.60 1006.72 1007.02 1006.86 1006.64 1006.26 1005.73 1003.92 1003.53 1002.59 1001.66 1000.96 1000.31 999.71 999.37 999.14 999.14 999.20 999.35 999.96 1000.08 1001.30 1002.88 1004.34 1005.88 1006.50 1007.48 1009.17 1010.93 1012.80 1014.20 1015.74 1016.32 1017.70
1013.26 1013.44 1013.29 1012.10 1010.60 1008.70 1007.59 1008.67 1008.94 1008.67 1006.66 1007.12 1007.37 1006.96 1006.67 1006.36 1005.10 1002.43 1001.94 1001.58 1000.79 1000.08 999.39 998.73 998.35 998.18 997.76 997.75 998.23 999.10 1000.28 1001.76 1003.38 1004.85 1006.38 1007.73 1008.15 1009.53 1011.56 1013.37 1015.13 1016.45 1017.16 1017.77
1012.66 1012.40 1012.51 1011.59 1010.58 1008.71 1008.15 1008.81 1008.68 1008.53 1007.48 1007.11 1007.54 1006.96 1006.50 1005.83 1004.83 1002.16 1000.87 999.64 998.58 998.05 997.41 997.26 997.54 997.29 997.02 996.36 997.89 999.46 1000.93 1002.88 1004.04 1005.54 1006.88 1008.70 1009.41 1010.69 1012.27 1014.51 1016.09 1017.06 1017.70 1018.31
1013.00 1012.66 1012.11 1011.58 1010.35 1008.67 1008.81 1008.83 1009.25 1008.20 1007.76 1007.74 1006.95 1006.51 1005.36 1004.38 1002.88 1001.10 999.16 997.93 996.89 995.84 995.19 995.23 996.86 996.62 996.77 997.80 999.04 1000.73 1002.36 1003.84 1005.04 1006.06 1007.93 1009.79 1010.84 1012.08 1013.67 1015.36 1016.85 1017.41 1018.08 1018.84
1013.00 1012.78 1012.29 1011.98 1009.57 1007.91 1008.59 1008.92 1008.92 1008.75 1008.01 1007.39 1006.82 1005.51 1004.64 1002.90 1001.01 999.21 997.48 996.08 995.13 993.67 992.92 994.54 996.38 997.15 998.39 999.50 1000.02 1002.22 1004.15 1005.04 1005.94 1007.63 1009.27 1010.86 1012.10 1013.52 1015.43 1016.13 1016.88 1017.98 1017.90 1019.75
1012.52 1012.38 1012.24 1011.50 1009.11 1009.11 1009.10 1009.01 1008.85 1008.44 1008.00 1007.16 1006.03 1004.75 1003.29 1001.22 999.00 996.86 995.85 994.77 994.79 994.92 995.23 996.16 997.36 998.54 999.72 1000.80 1001.80 1003.07 1005.61 1006.47 1006.77 1008.85 1010.57 1012.19 1012.98 1015.07 1016.21 1016.49 1017.31 1018.26 1019.14 1020.70
1012.47 1012.62 1011.69 1010.59 1009.89 1009.74 1009.15 1009.54 1009.08 1008.21 1007.50 1006.35 1005.06 1003.80 1002.04 1000.47 998.60 996.74 995.57 995.33 995.70 996.38 996.86 997.76 999.02 999.67 1000.98 1001.56 1003.46 1004.90 1006.67 1006.72 1008.17 1010.10 1011.94 1013.19 1014.57 1015.51 1016.69 1018.14 1018.81 1019.79 1021.28 1021.88
1011.91 1011.48 1011.47 1010.52 1010.41 1010.41 1009.71 1009.58 1009.00 1007.97 1006.77 1005.49 1004.34 1002.65 1001.42 1000.34 999.45 997.91 997.28 997.14 997.23 997.72 998.51 999.21 1000.42 1001.70 1003.35 1004.07 1005.15 1006.40 1007.06 1006.80 1008.67 1011.00 1013.10 1014.51 1015.37 1016.14 1016.98 1018.18 1020.91 1022.34 1023.27 1024.17
Wind_Speed
1 6 12 15 12 14 13 15 20 18 15 20 20 23 21 19 18 19 18 14 14 14 13 10 10 11 8 9 11 15 16 16 11 11 11 10 10 8 7 7 9 10 9 9
6 15 18 12 10 10 13 16 18 14 13 19 21 26 24 22 24 23 21 18 15 14 12 11 11 12 9 9 10 13 16 14 12 12 7 5 9 7 7 8 9 10 12 11
15 17 10 14 17 15 16 15 17 22 19 16 18 20 6 9 16 21 19 18 16 14 13 13 11 11 10 9 11 13 14 15 15 13 9 9 6 7 7 9 9 10 12 11
11 6 7 8 11 10 17 13 13 13 13 8 8 14 14 14 18 13 16 14 14 14 13 14 13 13 13 11 9 11 12 13 13 16 12 14 10 11 8 7 9 10 12 10
10 10 11 15 15 11 11 5 8 15 18 18 13 10 4 5 14 15 10 10 10 12 14 15 15 15 15 10 9 9 11 12 13 14 14 12 11 8 11 9 12 9 8 10
8 13 7 7 2 4 3 7 17 12 8 9 12 14 2 5 6 9 6 4 3 3 9 11 11 11 12 10 10 11 12 11 13 13 16 16 15 13 12 11 9 7 7 6
13 5 4 2 4 2 11 12 6 4 4 6 3 7 15 13 19 20 15 12 1 4 8 7 9 9 11 10 10 11 14 14 14 16 18 16 15 13 16 15 11 12 9 8
5 7 5 2 6 10 16 5 5 7 5 7 7 10 3 11 15 12 11 4 1 3 2 5 7 8 11 12 9 13 14 15 15 18 19 13 16 10 11 13 13 10 10 9
11 6 13 22 17 6 4 7 2 5 11 10 7 7 13 14 12 5 7 7 7 5 5 7 8 7 8 14 9 12 14 15 15 19 18 16 15 14 11 13 12 10 11 11
5 17 8 1 4 10 13 0 5 4 6 7 6 11 9 12 9 2 5 7 6 4 8 9 10 10 9 10 9 8 13 16 16 16 18 16 16 16 16 14 12 14 13 12
7 6 7 11 6 8 5 9 7 4 5 6 10 4 2 7 6 7 6 3 4 7 9 11 13 12 11 10 9 6 11 13 13 12 13 17 15 17 17 14 13 14 13 15
3 4 8 19 20 16 13 14 13 6 5 6 8 14 14 15 10 7 12 12 13 11 12 14 13 14 11 10 10 6 9 13 14 14 13 16 18 15 15 14 14 16 15 14
2 4 6 9 3 2 4 7 15 15 10 15 13 11 2 8 14 19 21 20 17 16 14 12 13 12 10 11 9 5 9 13 13 16 12 15 17 16 15 16 15 15 16 17
12 6 10 13 17 12 13 17 14 13 7 13 18 25 24 20 19 18 19 18 17 16 15 13 12 11 11 12 9 8 7 12 15 15 19 15 17 17 18 18 17 16 16 19
3 5 11 16 21 23 26 25 23 20 14 14 18 23 21 22 15 17 19 20 19 18 15 13 12 11 13 12 12 6 7 12 16 14 18 12 15 18 18 17 18 16 16 15
1 4 3 9 19 18 21 22 22 22 20 18 20 24 18 9 13 16 19 21 21 21 20 17 14 14 15 14 14 6 10 14 17 18 17 17 17 20 19 17 18 18 16 16
4 3 3 7 13 20 12 3 4 4 4 6 15 23 9 14 18 21 22 19 22 23 23 21 18 17 15 15 13 11 12 16 18 17 17 21 18 20 21 19 18 17 16 16
2 3 3 8 10 5 3 3 2 9 16 18 21 20 11 16 22 21 20 25 23 19 18 17 16 15 16 15 14 12 13 15 18 18 18 21 22 22 21 21 19 17 16 16
13 3 5 4 6 15 11 4 1 9 24 15 7 12 19 23 21 21 16 16 15 14 15 17 15 16 15 15 13 15 17 19 20 20 19 20 24 24 23 21 19 15 17 14
8 11 6 5 7 7 2 6 8 10 16 5 15 22 22 20 15 19 19 18 22 21 18 18 18 17 14 16 15 20 20 22 21 21 21 20 23 24 23 20 16 12 15 16
6 6 8 10 7 9 2 5 8 5 7 21 21 20 22 18 15 25 29 28 24 19 20 19 15 12 16 17 21 20 20 20 21 22 22 20 21 23 22 19 15 15 16 17
3 4 3 4 5 7 3 10 3 13 19 21 19 22 24 22 25 27 28 26 23 19 20 15 8 7 15 20 22 21 21 20 22 23 23 21 21 18 17 19 16 17 17 18
5 5 4 7 7 12 7 14 15 13 17 21 20 23 22 25 26 28 26 23 17 9 8 19 18 16 17 21 24 23 19 22 24 25 23 21 21 19 16 18 18 15 18 14
5 3 5 4 8 12 14 15 9 20 18 20 21 23 23 25 27 23 16 7 8 15 18 21 23 20 19 18 22 24 19 22 27 26 24 21 21 19 15 12 12 12 13 12
6 3 6 9 12 12 7 12 17 19 20 21 22 22 21 22 15 13 9 12 13 15 16 20 20 19 20 21 22 23 22 25 26 24 21 20 16 18 17 14 11 12 10 10
4 6 4 7 10 8 11 15 19 19 21 21 22 23 18 10 12 15 14 13 14 16 17 19 21 23 20 21 21 21 21 25 27 23 17 15 14 15 15 17 17 28 25 24
Wind_Direction
93 265 263 284 279 282 284 284 286 291 291 292 292 288 286 279 275 268 267 256 261 259 268 278 277 277 284 256 213 207 196 193 174 180 170 162 177 165 173 189 179 177 180 193
256 265 273 282 278 263 272 278 285 290 292 296 291 285 285 270 260 261 260 257 242 245 247 252 260 273 264 269 238 210 193 182 183 195 177 168 161 167 167 188 175 179 183 175
266 269 282 278 281 275 272 272 287 299 307 290 288 286 271 281 261 261 258 251 251 246 236 241 247 253 273 245 231 224 205 188 187 173 163 99 142 107 163 187 167 172 181 179
272 302 269 289 275 276 281 280 296 301 310 307 347 292 285 288 280 274 263 257 250 248 242 255 252 254 258 256 244 230 216 199 193 179 159 154 168 159 169 177 164 168 175 163
290 299 303 291 278 285 295 312 297 297 288 290 248 258 313 272 280 294 287 261 252 247 234 231 241 244 247 251 247 235 221 207 183 180 171 169 182 171 144 157 147 127 143 140
279 298 274 270 15 55 2 327 304 292 270 254 258 225 317 285 265 303 305 327 359 239 236 245 251 250 246 244 219 216 204 190 185 172 176 175 163 160 139 148 125 135 131 111
322 326 294 322 282 338 328 316 296 258 201 260 44 264 252 273 273 292 296 309 305 249 252 252 242 239 257 246 223 200 205 194 182 179 184 177 154 155 149 150 153 148 133 146
341 328 357 52 303 307 299 247 265 288 263 297 287 254 249 262 280 297 298 319 101 142 348 291 287 274 268 271 214 211 196 197 187 186 185 164 154 159 160 159 159 155 152 146
313 259 301 289 290 240 161 219 249 267 251 274 231 247 270 267 281 0 26 118 102 61 7 328 313 306 294 282 246 218 192 201 191 194 178 162 156 152 167 162 156 148 133 139
297 299 294 47 319 239 233 266 225 212 271 270 250 270 265 283 307 291 69 51 57 7 344 336 329 316 317 293 280 219 211 203 193 180 174 153 156 154 163 156 142 134 134 137
308 258 273 303 248 258 196 228 218 288 263 281 301 264 206 278 309 308 287 288 329 345 338 325 320 316 307 305 301 230 218 190 196 180 172 153 158 163 157 148 140 129 129 133
309 279 277 280 280 278 262 257 238 237 198 231 282 277 270 277 305 322 315 314 320 325 321 312 303 302 297 305 301 255 207 182 190 152 179 157 158 156 150 140 129 126 130 138
329 238 293 293 151 141 211 215 228 241 266 248 267 264 201 305 304 310 310 309 311 306 305 307 290 281 282 295 295 275 215 188 179 163 163 156 152 144 133 126 129 127 129 126
270 214 228 257 284 293 277 265 248 217 241 261 245 282 285 297 304 305 304 305 296 288 285 289 286 269 275 282 280 274 235 194 165 181 158 168 151 133 129 128 129 130 131 131
222 247 238 248 267 270 270 275 274 259 249 257 282 283 288 290 307 304 298 302 297 292 292 284 282 276 280 281 276 267 242 195 165 169 141 177 143 128 123 123 120 121 119 111
329 273 279 281 279 274 278 281 275 266 263 254 266 274 283 298 300 303 305 302 297 298 294 287 276 269 272 271 274 277 241 199 163 166 148 142 138 122 120 123 118 116 111 103
270 279 282 277 307 303 279 246 355 308 245 270 270 279 312 302 304 306 304 293 287 284 278 275 267 259 253 259 266 272 243 189 160 134 139 129 129 121 117 117 113 110 108 109
224 233 234 281 319 268 66 154 288 286 279 281 275 275 287 299 311 298 287 279 276 272 278 272 261 256 253 255 258 260 243 153 128 130 128 124 123 119 118 114 113 113 111 108
217 243 282 281 263 282 257 197 313 331 298 284 315 318 313 313 303 288 275 272 263 270 282 278 262 262 256 247 256 234 147 135 132 132 129 129 126 125 120 116 118 119 109 107
230 237 241 285 283 292 24 192 309 301 280 73 338 314 310 308 296 290 299 290 281 275 268 265 259 260 249 243 216 152 141 136 135 133 129 133 129 123 117 118 120 118 116 115
283 277 256 266 269 270 345 340 324 276 350 318 324 299 301 293 278 283 290 287 279 273 272 262 249 248 266 144 139 134 129 133 127 128 124 127 121 117 116 116 117 119 113 106
257 281 253 245 253 280 91 312 260 319 307 306 300 303 294 290 288 284 285 279 280 274 262 235 211 171 122 123 118 119 120 127 121 118 115 115 116 114 112 115 121 116 108 100
256 212 273 231 248 292 313 293 298 297 302 303 301 297 295 292 288 289 284 287 281 271 116 124 111 104 105 118 115 109 116 123 117 117 116 113 108 106 115 120 116 114 104 100
250 251 245 269 275 281 310 309 290 314 304 301 295 294 293 289 292 288 285 247 122 96 97 104 105 107 109 115 111 112 119 129 116 115 113 111 104 110 110 100 101 102 105 107
269 167 239 254 285 308 274 327 312 305 301 299 299 301 301 303 334 318 83 110 100 101 104 107 109 108 107 111 115 124 129 123 116 110 109 104 102 102 96 81 78 90 72 89
189 224 219 285 316 287 294 313 309 302 305 304 308 306 308 359 340 46 48 68 83 92 101 100 102 103 109 111 112 118 124 118 112 106 104 108 109 103 96 89 79 63 78 78